Location: 81360 Arifat, France
(43.7204°N, 2.3408°E)
Time: 08:18:55
(UTC+02:00)

Envisat - Pass Details

Date: 05 October 2021
Orbit: 764 x 766 km, 98.2° (Epoch: 23 October)

Event Time Altitude Azimuth Distance (km) Brightness Sun altitude
Rises 06:25:16 0° 20° (NNE) 3,239 6.7 -16.6°
Reaches altitude 10° 06:27:44 10° 28° (NNE) 2,308 6.0 -16.2°
Maximum altitude 06:32:29 39° 97° (E) 1,142 4.5 -15.3°
Drops below altitude 10° 06:37:11 10° 166° (SSE) 2,292 5.6 -14.5°
Sets 06:39:37 0° 174° (S) 3,213 6.2 -14.0°
